Time,TemperatureF,DewpointF,PressureIn,WindDirection,WindDirectionDegrees,WindSpeedMPH,WindSpeedGustMPH,Humidity,HourlyPrecipIn,Conditions,Clouds,dailyrainin,SolarRadiationWatts/m^2,SoftwareType,DateUTC
2013-05-02 00:00:00,68.1,63.1,29.91,ESE,116,0.0,0.0,84,0.00,,---,0.00,0.00,VWS V14.00,2013-05-02 05:00:00,
2013-05-02 00:01:00,68.1,63.1,29.91,ESE,116,0.0,0.0,84,0.00,,---,0.00,0.00,VWS V14.00,2013-05-02 05:01:00,
2013-05-02 00:05:00,68.2,63.2,29.91,ENE,69,0.0,0.0,84,0.00,,---,0.00,0.00,VWS V14.00,2013-05-02 05:05:00,
2013-05-02 00:09:00,68.2,63.2,29.91,East,90,0.0,0.0,84,0.00,,---,0.00,0.00,VWS V14.00,2013-05-02 05:09:00,
2013-05-02 00:13:00,68.1,63.1,29.91,ENE,67,0.0,0.0,84,0.00,,---,0.00,0.00,VWS V14.00,2013-05-02 05:13:00,
2013-05-02 00:17:00,68.1,63.4,29.91,WNW,290,0.0,0.0,85,0.00,,---,0.00,0.00,VWS V14.00,2013-05-02 05:17:00,
2013-05-02 00:21:00,68.1,63.4,29.91,NE,48,0.0,0.0,85,0.00,,---,0.00,0.00,VWS V14.00,2013-05-02 05:21:00,
2013-05-02 00:25:00,68.0,63.3,29.91,East,86,0.0,0.0,85,0.00,,---,0.00,0.00,VWS V14.00,2013-05-02 05:25:00,
2013-05-02 00:29:00,68.0,63.3,29.91,ESE,114,0.0,0.0,85,0.00,,---,0.00,0.00,VWS V14.00,2013-05-02 05:29:00,
2013-05-02 00:30:00,68.0,63.3,29.91,ENE,63,0.0,0.0,85,0.00,,---,0.00,0.00,VWS V14.00,2013-05-02 05:30:00,
2013-05-02 00:33:00,68.1,63.4,29.91,ENE,77,0.0,0.0,85,0.00,,---,0.00,0.00,VWS V14.00,2013-05-02 05:33:00,
2013-05-02 00:37:00,68.1,63.8,29.91,ENE,70,0.0,0.0,86,0.00,,---,0.00,0.00,VWS V14.00,2013-05-02 05:37:00,
2013-05-02 00:41:00,68.1,63.8,29.91,ENE,71,0.0,0.0,86,0.00,,---,0.00,0.00,VWS V14.00,2013-05-02 05:41:00,
2013-05-02 00:45:00,68.1,63.8,29.92,East,80,0.0,0.0,86,0.00,,---,0.00,0.00,VWS V14.00,2013-05-02 05:45:00,
2013-05-02 00:49:00,68.1,63.8,29.92,ENE,74,0.0,0.0,86,0.00,,---,0.00,0.00,VWS V14.00,2013-05-02 05:49:00,
2013-05-02 00:53:00,68.1,64.1,29.92,East,86,0.0,0.0,87,0.00,,---,0.00,0.00,VWS V14.00,2013-05-02 05:53:00,
2013-05-02 00:57:00,68.0,63.7,29.92,ENE,71,0.0,0.0,86,0.00,,---,0.00,0.00,VWS V14.00,2013-05-02 05:57:00,
2013-05-02 01:00:00,68.0,63.7,29.92,ENE,70,0.0,0.0,86,0.00,,---,0.00,0.00,VWS V14.00,2013-05-02 06:00:00,
2013-05-02 01:01:00,68.0,63.7,29.92,East,87,0.0,0.0,86,0.00,,---,0.00,0.00,VWS V14.00,2013-05-02 06:01:00,
2013-05-02 01:05:00,68.0,64.0,29.92,East,90,0.0,0.0,87,0.00,,---,0.00,0.00,VWS V14.00,2013-05-02 06:05:00,
2013-05-02 01:09:00,67.9,63.6,29.92,ENE,61,0.0,0.0,86,0.00,,---,0.00,0.00,VWS V14.00,2013-05-02 06:09:00,
2013-05-02 01:13:00,68.0,64.0,29.92,East,80,0.0,0.0,87,0.00,,---,0.00,0.00,VWS V14.00,2013-05-02 06:13:00,
2013-05-02 01:17:00,68.0,63.7,29.92,East,91,0.0,0.0,86,0.00,,---,0.00,0.00,VWS V14.00,2013-05-02 06:17:00,
2013-05-02 01:21:00,67.9,63.9,29.92,ESE,104,0.0,0.0,87,0.00,,---,0.00,0.00,VWS V14.00,2013-05-02 06:21:00,
2013-05-02 01:25:00,67.9,63.9,29.92,East,90,0.0,0.0,87,0.00,,---,0.00,0.00,VWS V14.00,2013-05-02 06:25:00,
2013-05-02 01:29:00,67.9,63.9,29.93,ENE,70,0.0,0.0,87,0.00,,---,0.00,0.00,VWS V14.00,2013-05-02 06:29:00,
2013-05-02 01:30:00,67.9,63.9,29.93,East,87,0.0,0.0,87,0.00,,---,0.00,0.00,VWS V14.00,2013-05-02 06:30:00,
2013-05-02 01:33:00,67.9,63.9,29.93,East,90,0.0,0.0,87,0.00,,---,0.00,0.00,VWS V14.00,2013-05-02 06:33:00,
2013-05-02 01:38:00,67.8,63.5,29.93,ENE,78,0.0,0.0,86,0.00,,---,0.00,0.00,VWS V14.00,2013-05-02 06:38:00,
2013-05-02 01:42:00,67.8,63.8,29.93,ESE,107,0.0,0.0,87,0.00,,---,0.00,0.00,VWS V14.00,2013-05-02 06:42:00,
2013-05-02 01:46:00,67.7,63.7,29.93,NNE,14,0.0,0.0,87,0.00,,---,0.00,0.00,VWS V14.00,2013-05-02 06:46:00,
2013-05-02 01:50:00,67.7,63.7,29.93,NNE,15,0.0,0.0,87,0.00,,---,0.00,0.00,VWS V14.00,2013-05-02 06:50:00,
2013-05-02 01:54:00,67.6,63.6,29.93,ENE,66,0.0,0.0,87,0.00,,---,0.00,0.00,VWS V14.00,2013-05-02 06:54:00,
2013-05-02 01:58:00,67.5,63.5,29.93,ENE,67,0.0,0.0,87,0.00,,---,0.00,0.00,VWS V14.00,2013-05-02 06:58:00,
2013-05-02 02:00:00,67.5,63.5,29.94,ENE,76,0.0,0.0,87,0.00,,---,0.00,0.00,VWS V14.00,2013-05-02 07:00:00,
2013-05-02 02:02:00,67.5,63.5,29.94,ENE,74,0.0,0.0,87,0.00,,---,0.00,0.00,VWS V14.00,2013-05-02 07:02:00,
2013-05-02 02:06:00,67.4,63.4,29.94,ENE,74,0.0,0.0,87,0.00,,---,0.00,0.00,VWS V14.00,2013-05-02 07:06:00,
2013-05-02 02:10:00,67.3,63.3,29.94,ENE,65,0.0,0.0,87,0.00,,---,0.00,0.00,VWS V14.00,2013-05-02 07:10:00,
2013-05-02 02:14:00,67.3,63.3,29.94,North,5,0.0,0.0,87,0.00,,---,0.00,0.00,VWS V14.00,2013-05-02 07:14:00,
2013-05-02 02:18:00,67.3,63.3,29.94,North,5,0.0,0.0,87,0.00,,---,0.00,0.00,VWS V14.00,2013-05-02 07:18:00,
2013-05-02 02:22:00,67.1,63.4,29.94,North,11,0.0,0.0,88,0.00,,---,0.00,0.00,VWS V14.00,2013-05-02 07:22:00,
2013-05-02 02:26:00,67.0,63.3,29.94,North,11,0.0,0.0,88,0.00,,---,0.00,0.00,VWS V14.00,2013-05-02 07:26:00,
2013-05-02 02:30:00,67.0,63.3,29.94,North,360,0.0,0.0,88,0.00,,---,0.00,0.00,VWS V14.00,2013-05-02 07:30:00,
2013-05-02 02:34:00,67.0,63.3,29.94,NE,38,0.0,0.0,88,0.00,,---,0.00,0.00,VWS V14.00,2013-05-02 07:34:00,
2013-05-02 02:38:00,67.0,63.3,29.94,NE,56,0.0,0.0,88,0.00,,---,0.00,0.00,VWS V14.00,2013-05-02 07:38:00,
2013-05-02 02:42:00,66.9,63.2,29.94,ENE,71,0.0,0.0,88,0.00,,---,0.00,0.00,VWS V14.00,2013-05-02 07:42:00,
2013-05-02 02:46:00,66.8,63.1,29.94,ENE,61,0.0,0.0,88,0.00,,---,0.00,0.00,VWS V14.00,2013-05-02 07:46:00,
2013-05-02 02:50:00,66.7,63.4,29.94,ENE,63,0.0,0.0,89,0.00,,---,0.00,0.00,VWS V14.00,2013-05-02 07:50:00,
2013-05-02 02:54:00,66.6,63.3,29.94,ENE,57,0.0,0.0,89,0.00,,---,0.00,0.00,VWS V14.00,2013-05-02 07:54:00,
2013-05-02 02:58:00,66.4,63.1,29.94,ENE,57,0.0,0.0,89,0.00,,---,0.00,0.00,VWS V14.00,2013-05-02 07:58:00,
2013-05-02 03:00:00,66.4,63.1,29.94,ENE,62,0.0,0.0,89,0.00,,---,0.00,0.00,VWS V14.00,2013-05-02 08:00:00,
2013-05-02 03:02:00,66.3,63.0,29.94,ENE,63,0.0,0.0,89,0.00,,---,0.00,0.00,VWS V14.00,2013-05-02 08:02:00,
2013-05-02 03:06:00,66.2,62.9,29.94,NE,41,0.0,0.0,89,0.00,,---,0.00,0.00,VWS V14.00,2013-05-02 08:06:00,
2013-05-02 03:10:00,66.1,62.8,29.94,NNE,28,0.0,0.0,89,0.00,,---,0.00,0.00,VWS V14.00,2013-05-02 08:10:00,
2013-05-02 03:14:00,66.0,63.0,29.94,East,98,0.0,0.0,90,0.00,,---,0.00,0.00,VWS V14.00,2013-05-02 08:14:00,
2013-05-02 03:18:00,66.0,63.0,29.94,ENE,73,0.0,0.0,90,0.00,,---,0.00,0.00,VWS V14.00,2013-05-02 08:18:00,
2013-05-02 03:22:00,66.1,63.1,29.94,ENE,76,0.0,0.0,90,0.00,,---,0.00,0.00,VWS V14.00,2013-05-02 08:22:00,
2013-05-02 03:26:00,66.0,63.0,29.94,NE,39,0.0,0.0,90,0.00,,---,0.00,0.00,VWS V14.00,2013-05-02 08:26:00,
2013-05-02 03:30:00,65.8,62.8,29.94,WNW,295,0.0,0.0,90,0.00,,---,0.00,0.00,VWS V14.00,2013-05-02 08:30:00,
2013-05-02 03:34:00,65.8,62.8,29.94,NNE,28,0.0,0.0,90,0.00,,---,0.00,0.00,VWS V14.00,2013-05-02 08:34:00,
2013-05-02 03:38:00,65.8,63.1,29.94,North,351,0.0,0.0,91,0.00,,---,0.00,0.00,VWS V14.00,2013-05-02 08:38:00,
2013-05-02 03:42:00,65.8,63.1,29.94,NNW,337,0.0,0.0,91,0.00,,---,0.00,0.00,VWS V14.00,2013-05-02 08:42:00,
2013-05-02 03:46:00,65.7,63.0,29.94,NNW,336,0.0,0.0,91,0.00,,---,0.00,0.00,VWS V14.00,2013-05-02 08:46:00,
2013-05-02 03:51:00,65.6,62.9,29.94,North,350,0.0,0.0,91,0.00,,---,0.00,0.00,VWS V14.00,2013-05-02 08:51:00,
2013-05-02 03:55:00,65.7,63.0,29.94,NNW,333,0.0,0.0,91,0.00,,---,0.00,0.00,VWS V14.00,2013-05-02 08:55:00,
2013-05-02 03:59:00,65.6,62.9,29.94,NE,54,0.0,0.0,91,0.00,,---,0.00,0.00,VWS V14.00,2013-05-02 08:59:00,
2013-05-02 04:00:00,65.7,63.0,29.94,ENE,60,0.0,0.0,91,0.00,,---,0.00,0.00,VWS V14.00,2013-05-02 09:00:00,
2013-05-02 04:03:00,65.6,62.9,29.94,NE,37,0.0,0.0,91,0.00,,---,0.00,0.00,VWS V14.00,2013-05-02 09:03:00,
2013-05-02 04:07:00,65.6,62.9,29.94,East,97,0.0,0.0,91,0.00,,---,0.00,0.00,VWS V14.00,2013-05-02 09:07:00,
2013-05-02 04:11:00,65.6,62.9,29.94,East,96,0.0,0.0,91,0.00,,---,0.00,0.00,VWS V14.00,2013-05-02 09:11:00,
2013-05-02 04:15:00,65.6,62.9,29.95,NE,51,0.0,0.0,91,0.00,,---,0.00,0.00,VWS V14.00,2013-05-02 09:15:00,
2013-05-02 04:19:00,65.6,62.9,29.95,ESE,123,0.0,0.0,91,0.00,,---,0.00,0.00,VWS V14.00,2013-05-02 09:19:00,
2013-05-02 04:23:00,65.5,62.8,29.95,ESE,120,0.0,0.0,91,0.00,,---,0.00,0.00,VWS V14.00,2013-05-02 09:23:00,
2013-05-02 04:27:00,65.5,62.8,29.95,ENE,65,0.0,0.0,91,0.00,,---,0.00,0.00,VWS V14.00,2013-05-02 09:27:00,
2013-05-02 04:30:00,65.5,62.8,29.95,ENE,64,0.0,0.0,91,0.00,,---,0.00,0.00,VWS V14.00,2013-05-02 09:30:00,
2013-05-02 04:31:00,65.6,62.9,29.95,ENE,63,0.0,0.0,91,0.00,,---,0.00,0.00,VWS V14.00,2013-05-02 09:31:00,
2013-05-02 04:35:00,65.6,62.9,29.95,East,92,0.0,0.0,91,0.00,,---,0.00,0.00,VWS V14.00,2013-05-02 09:35:00,
2013-05-02 04:39:00,65.7,63.0,29.95,East,95,0.0,0.0,91,0.00,,---,0.00,0.00,VWS V14.00,2013-05-02 09:39:00,
2013-05-02 04:43:00,65.7,63.0,29.95,ENE,73,0.0,0.0,91,0.00,,---,0.00,0.00,VWS V14.00,2013-05-02 09:43:00,
2013-05-02 04:47:00,65.8,63.1,29.95,ENE,74,0.0,0.0,91,0.00,,---,0.00,0.00,VWS V14.00,2013-05-02 09:47:00,
2013-05-02 05:24:00,65.9,62.9,29.96,NNW,333,0.0,0.0,90,0.00,,---,0.00,0.00,VWS V14.00,2013-05-02 10:24:00,
2013-05-02 05:28:00,65.9,62.9,29.96,North,355,0.0,0.0,90,0.00,,---,0.00,0.00,VWS V14.00,2013-05-02 10:28:00,
2013-05-02 05:30:00,66.0,63.0,29.97,NNW,344,0.0,0.0,90,0.00,,---,0.00,0.00,VWS V14.00,2013-05-02 10:30:00,
2013-05-02 05:32:00,65.9,62.9,29.97,NNW,346,0.0,0.0,90,0.00,,---,0.00,0.00,VWS V14.00,2013-05-02 10:32:00,
2013-05-02 05:36:00,65.9,62.9,29.97,NNW,341,0.0,0.0,90,0.00,,---,0.00,0.00,VWS V14.00,2013-05-02 10:36:00,
2013-05-02 05:40:00,65.8,62.8,29.97,NNW,348,0.0,0.0,90,0.00,,---,0.00,0.00,VWS V14.00,2013-05-02 10:40:00,
2013-05-02 05:44:00,65.8,62.8,29.98,North,5,0.0,0.0,90,0.00,,---,0.00,0.00,VWS V14.00,2013-05-02 10:44:00,
2013-05-02 05:48:00,65.8,63.1,29.98,North,5,0.0,0.0,91,0.00,,---,0.00,0.00,VWS V14.00,2013-05-02 10:48:00,
2013-05-02 05:52:00,65.8,63.1,29.98,North,351,0.0,0.0,91,0.00,,---,0.00,0.00,VWS V14.00,2013-05-02 10:52:00,
2013-05-02 05:56:00,65.8,63.1,29.98,NNW,344,0.0,0.0,91,0.00,,---,0.00,0.00,VWS V14.00,2013-05-02 10:56:00,
2013-05-02 06:00:00,65.7,63.0,29.98,NNW,341,0.0,0.0,91,0.00,,---,0.00,0.00,VWS V14.00,2013-05-02 11:00:00,
2013-05-02 06:04:00,65.7,62.7,29.98,North,355,0.0,0.0,90,0.00,,---,0.00,0.00,VWS V14.00,2013-05-02 11:04:00,
2013-05-02 06:08:00,65.7,62.7,29.98,NNW,348,0.0,0.0,90,0.00,,---,0.00,0.00,VWS V14.00,2013-05-02 11:08:00,
2013-05-02 06:12:00,65.7,62.7,29.98,North,350,0.0,0.0,90,0.00,,---,0.00,0.00,VWS V14.00,2013-05-02 11:12:00,
2013-05-02 06:16:00,65.7,62.7,29.99,NNW,341,0.0,0.0,90,0.00,,---,0.00,0.00,VWS V14.00,2013-05-02 11:16:00,
2013-05-02 06:20:00,65.8,63.1,29.99,North,355,0.0,0.0,91,0.00,,---,0.00,0.00,VWS V14.00,2013-05-02 11:20:00,
2013-05-02 06:24:00,65.8,62.8,29.99,North,355,0.0,0.0,90,0.00,,---,0.00,0.00,VWS V14.00,2013-05-02 11:24:00,
2013-05-02 06:28:00,65.8,62.8,29.99,North,351,0.0,0.0,90,0.00,,---,0.00,0.00,VWS V14.00,2013-05-02 11:28:00,
2013-05-02 06:30:00,65.8,62.8,29.99,NNW,336,0.0,0.0,90,0.00,,---,0.00,0.00,VWS V14.00,2013-05-02 11:30:00,
2013-05-02 06:32:00,65.8,62.8,29.99,WSW,238,0.0,0.0,90,0.00,,---,0.00,5.00,VWS V14.00,2013-05-02 11:32:00,
2013-05-02 06:36:00,65.7,63.0,29.99,North,9,0.0,0.0,91,0.00,,---,0.00,7.00,VWS V14.00,2013-05-02 11:36:00,
2013-05-02 06:40:00,65.6,62.9,29.99,NNW,328,0.0,0.0,91,0.00,,---,0.00,0.00,VWS V14.00,2013-05-02 11:40:00,
2013-05-02 06:45:00,65.6,62.9,30.00,NNW,343,0.0,0.0,91,0.00,,---,0.00,7.00,VWS V14.00,2013-05-02 11:45:00,
2013-05-02 06:49:00,65.6,62.9,30.00,North,351,0.0,0.0,91,0.00,,---,0.00,11.00,VWS V14.00,2013-05-02 11:49:00,
2013-05-02 06:53:00,65.7,63.0,30.00,NNW,328,0.0,0.0,91,0.00,,---,0.00,7.00,VWS V14.00,2013-05-02 11:53:00,
2013-05-02 06:57:00,65.7,63.0,30.00,North,360,0.0,0.0,91,0.00,,---,0.00,7.00,VWS V14.00,2013-05-02 11:57:00,
2013-05-02 07:00:00,65.7,63.0,30.00,North,355,0.0,0.0,91,0.00,,---,0.00,12.00,VWS V14.00,2013-05-02 12:00:00,
2013-05-02 07:01:00,65.6,62.9,30.00,NNW,347,0.0,0.0,91,0.00,,---,0.00,12.00,VWS V14.00,2013-05-02 12:01:00,
2013-05-02 07:05:00,65.5,63.1,30.00,NNW,345,0.0,0.0,92,0.02,,---,0.02,11.00,VWS V14.00,2013-05-02 12:05:00,
2013-05-02 07:09:00,65.4,63.3,30.00,NNW,346,0.0,0.0,93,0.05,,---,0.05,12.00,VWS V14.00,2013-05-02 12:09:00,
2013-05-02 07:13:00,64.9,62.2,30.00,NW,311,12.0,12.0,91,0.06,,---,0.06,19.00,VWS V14.00,2013-05-02 12:13:00,
2013-05-02 07:17:00,62.7,58.8,30.02,NW,311,13.0,13.0,87,0.07,,---,0.07,18.00,VWS V14.00,2013-05-02 12:17:00,
2013-05-02 07:21:00,61.2,57.9,30.02,North,5,11.0,13.0,89,0.09,,---,0.09,32.00,VWS V14.00,2013-05-02 12:21:00,
2013-05-02 07:25:00,60.1,56.8,30.02,WNW,296,8.0,13.0,89,0.10,,---,0.10,40.00,VWS V14.00,2013-05-02 12:25:00,
2013-05-02 07:29:00,59.4,56.5,30.02,NW,317,9.0,17.0,90,0.10,,---,0.10,33.00,VWS V14.00,2013-05-02 12:29:00,
2013-05-02 07:30:00,59.3,56.7,30.04,North,360,5.0,17.0,91,0.10,,---,0.10,28.00,VWS V14.00,2013-05-02 12:30:00,
2013-05-02 07:33:00,58.8,56.2,30.04,NW,326,6.0,10.0,91,0.10,,---,0.10,37.00,VWS V14.00,2013-05-02 12:33:00,
2013-05-02 07:37:00,58.4,55.8,30.04,North,351,5.0,13.0,91,0.10,,---,0.10,30.00,VWS V14.00,2013-05-02 12:37:00,
2013-05-02 07:41:00,57.7,54.8,30.04,NNW,339,9.0,13.0,90,0.11,,---,0.11,21.00,VWS V14.00,2013-05-02 12:41:00,
2013-05-02 07:45:00,57.0,54.1,30.05,NNE,33,1.0,13.0,90,0.11,,---,0.11,23.00,VWS V14.00,2013-05-02 12:45:00,
2013-05-02 07:49:00,56.5,53.9,30.05,North,355,7.0,13.0,91,0.11,,---,0.11,16.00,VWS V14.00,2013-05-02 12:49:00,
2013-05-02 07:53:00,56.0,53.4,30.05,West,261,6.0,13.0,91,0.11,,---,0.11,25.00,VWS V14.00,2013-05-02 12:53:00,
2013-05-02 07:57:00,55.9,53.3,30.05,WNW,302,3.0,13.0,91,0.11,,---,0.11,26.00,VWS V14.00,2013-05-02 12:57:00,
2013-05-02 08:00:00,55.9,53.6,30.06,NNW,346,4.0,13.0,92,0.11,,---,0.11,21.00,VWS V14.00,2013-05-02 13:00:00,
2013-05-02 08:01:00,55.8,53.5,30.06,WNW,293,3.0,4.0,92,0.11,,---,0.11,21.00,VWS V14.00,2013-05-02 13:01:00,
2013-05-02 08:05:00,55.6,53.3,30.06,NNW,331,5.0,10.0,92,0.11,,---,0.11,16.00,VWS V14.00,2013-05-02 13:05:00,
2013-05-02 08:09:00,55.3,53.0,30.06,ENE,63,7.0,10.0,92,0.11,,---,0.11,21.00,VWS V14.00,2013-05-02 13:09:00,
2013-05-02 08:13:00,55.0,52.7,30.06,NNW,346,15.0,15.0,92,0.11,,---,0.11,30.00,VWS V14.00,2013-05-02 13:13:00,
2013-05-02 08:17:00,54.7,52.4,30.07,NNW,342,15.0,15.0,92,0.11,,---,0.11,33.00,VWS V14.00,2013-05-02 13:17:00,
2013-05-02 08:21:00,54.5,52.2,30.07,NNW,346,7.0,15.0,92,0.11,,---,0.11,42.00,VWS V14.00,2013-05-02 13:21:00,
2013-05-02 08:25:00,54.4,52.1,30.07,NNW,342,6.0,15.0,92,0.11,,---,0.11,42.00,VWS V14.00,2013-05-02 13:25:00,
2013-05-02 08:29:00,54.3,52.0,30.07,North,5,9.0,15.0,92,0.11,,---,0.11,49.00,VWS V14.00,2013-05-02 13:29:00,
2013-05-02 08:30:00,54.4,52.1,30.07,North,5,5.0,15.0,92,0.11,,---,0.11,49.00,VWS V14.00,2013-05-02 13:30:00,
2013-05-02 08:33:00,54.4,52.1,30.07,NNW,342,7.0,9.0,92,0.01,,---,0.11,67.00,VWS V14.00,2013-05-02 13:33:00,
2013-05-02 08:37:00,54.4,52.1,30.07,NNW,341,3.0,15.0,92,0.01,,---,0.11,53.00,VWS V14.00,2013-05-02 13:37:00,
2013-05-02 08:41:00,54.5,51.9,30.07,NNE,25,7.0,15.0,91,0.01,,---,0.11,70.00,VWS V14.00,2013-05-02 13:41:00,
2013-05-02 08:45:00,54.6,52.3,30.08,NNW,342,5.0,15.0,92,0.01,,---,0.11,107.00,VWS V14.00,2013-05-02 13:45:00,
2013-05-02 08:49:00,54.6,52.0,30.08,North,355,2.0,15.0,91,0.01,,---,0.11,155.00,VWS V14.00,2013-05-02 13:49:00,
2013-05-02 08:53:00,54.7,52.1,30.08,North,351,10.0,15.0,91,0.01,,---,0.11,158.00,VWS V14.00,2013-05-02 13:53:00,
2013-05-02 08:57:00,54.8,52.2,30.08,North,351,6.0,15.0,91,0.01,,---,0.11,153.00,VWS V14.00,2013-05-02 13:57:00,
2013-05-02 09:00:00,55.0,52.4,30.08,North,11,7.0,15.0,91,0.01,,---,0.11,151.00,VWS V14.00,2013-05-02 14:00:00,
2013-05-02 09:01:00,55.0,52.4,30.08,NW,321,4.0,7.0,91,0.00,,---,0.11,144.00,VWS V14.00,2013-05-02 14:01:00,
2013-05-02 09:05:00,55.2,52.6,30.08,North,5,6.0,10.0,91,0.00,,---,0.11,121.00,VWS V14.00,2013-05-02 14:05:00,
2013-05-02 09:09:00,55.2,52.3,30.08,NNW,339,6.0,10.0,90,0.00,,---,0.11,104.00,VWS V14.00,2013-05-02 14:09:00,
2013-05-02 09:14:00,55.1,52.2,30.08,North,355,6.0,10.0,90,0.00,,---,0.11,142.00,VWS V14.00,2013-05-02 14:14:00,
2013-05-02 09:18:00,55.2,52.0,30.09,NNW,346,5.0,12.0,89,0.00,,---,0.11,113.00,VWS V14.00,2013-05-02 14:18:00,
2013-05-02 09:22:00,55.4,52.5,30.09,NNW,334,0.0,12.0,90,0.00,,---,0.11,118.00,VWS V14.00,2013-05-02 14:22:00,
2013-05-02 09:26:00,55.6,52.7,30.09,North,355,11.0,12.0,90,0.00,,---,0.11,116.00,VWS V14.00,2013-05-02 14:26:00,
2013-05-02 09:30:00,55.5,52.6,30.09,North,351,5.0,12.0,90,0.00,,---,0.11,100.00,VWS V14.00,2013-05-02 14:30:00,
2013-05-02 09:34:00,55.5,52.6,30.09,North,5,7.0,12.0,90,0.00,,---,0.11,105.00,VWS V14.00,2013-05-02 14:34:00,
2013-05-02 09:38:00,55.2,52.0,30.09,NNW,340,5.0,12.0,89,0.00,,---,0.11,97.00,VWS V14.00,2013-05-02 14:38:00,
2013-05-02 09:42:00,55.0,51.8,30.09,NNW,334,4.0,13.0,89,0.00,,---,0.11,90.00,VWS V14.00,2013-05-02 14:42:00,
2013-05-02 09:46:00,54.8,51.6,30.10,North,360,4.0,13.0,89,0.00,,---,0.11,84.00,VWS V14.00,2013-05-02 14:46:00,
2013-05-02 09:50:00,54.7,51.5,30.10,North,355,10.0,13.0,89,0.00,,---,0.11,95.00,VWS V14.00,2013-05-02 14:50:00,
2013-05-02 09:54:00,54.6,51.4,30.10,NNW,343,4.0,13.0,89,0.00,,---,0.11,141.00,VWS V14.00,2013-05-02 14:54:00,
2013-05-02 09:58:00,54.8,51.6,30.10,NNW,334,6.0,13.0,89,0.00,,---,0.11,153.00,VWS V14.00,2013-05-02 14:58:00,
2013-05-02 10:00:00,54.9,51.7,30.10,North,5,7.0,13.0,89,0.00,,---,0.11,151.00,VWS V14.00,2013-05-02 15:00:00,
2013-05-02 10:02:00,55.0,51.8,30.10,North,355,11.0,11.0,89,0.00,,---,0.11,144.00,VWS V14.00,2013-05-02 15:02:00,
2013-05-02 10:06:00,55.1,51.6,30.10,NW,318,6.0,11.0,88,0.00,,---,0.11,146.00,VWS V14.00,2013-05-02 15:06:00,
2013-05-02 10:10:00,55.3,51.8,30.10,NNE,22,6.0,11.0,88,0.00,,---,0.11,135.00,VWS V14.00,2013-05-02 15:10:00,
2013-05-02 10:14:00,55.4,51.6,30.11,NW,308,6.0,13.0,87,0.00,,---,0.11,160.00,VWS V14.00,2013-05-02 15:14:00,
2013-05-02 10:18:00,55.5,51.7,30.11,NNW,347,12.0,13.0,87,0.00,,---,0.11,213.00,VWS V14.00,2013-05-02 15:18:00,
2013-05-02 10:22:00,55.9,51.8,30.11,NNW,345,8.0,13.0,86,0.00,,---,0.11,218.00,VWS V14.00,2013-05-02 15:22:00,
2013-05-02 10:26:00,56.2,52.1,30.11,North,5,4.0,13.0,86,0.00,,---,0.11,221.00,VWS V14.00,2013-05-02 15:26:00,
2013-05-02 10:30:00,56.6,52.2,30.11,NNW,344,6.0,14.0,85,0.00,,---,0.11,207.00,VWS V14.00,2013-05-02 15:30:00,
2013-05-02 10:34:00,56.7,52.6,30.11,North,351,11.0,11.0,86,0.00,,---,0.11,223.00,VWS V14.00,2013-05-02 15:34:00,
2013-05-02 10:38:00,56.8,52.3,30.11,NNW,346,4.0,11.0,85,0.00,,---,0.11,221.00,VWS V14.00,2013-05-02 15:38:00,
2013-05-02 10:42:00,57.0,52.9,30.11,NW,305,4.0,11.0,86,0.00,,---,0.11,218.00,VWS V14.00,2013-05-02 15:42:00,
2013-05-02 10:46:00,57.1,52.6,30.11,North,10,7.0,11.0,85,0.00,,---,0.11,244.00,VWS V14.00,2013-05-02 15:46:00,
2013-05-02 10:50:00,57.2,52.4,30.11,NW,321,7.0,11.0,84,0.00,,---,0.11,260.00,VWS V14.00,2013-05-02 15:50:00,
2013-05-02 10:54:00,57.4,52.9,30.11,North,5,6.0,11.0,85,0.00,,---,0.11,236.00,VWS V14.00,2013-05-02 15:54:00,
2013-05-02 10:58:00,57.4,52.6,30.11,NNE,14,4.0,15.0,84,0.00,,---,0.11,299.00,VWS V14.00,2013-05-02 15:58:00,
2013-05-02 11:00:00,57.5,53.0,30.11,NNW,331,6.0,15.0,85,0.00,,---,0.11,308.00,VWS V14.00,2013-05-02 16:00:00,
2013-05-02 11:02:00,57.6,52.5,30.11,North,5,4.0,13.0,83,0.00,,---,0.11,318.00,VWS V14.00,2013-05-02 16:02:00,
2013-05-02 11:06:00,57.7,52.6,30.11,North,351,6.0,13.0,83,0.00,,---,0.11,339.00,VWS V14.00,2013-05-02 16:06:00,
2013-05-02 11:10:00,58.0,52.9,30.11,NNW,327,4.0,13.0,83,0.00,,---,0.11,299.00,VWS V14.00,2013-05-02 16:10:00,
2013-05-02 11:14:00,58.1,52.6,30.12,NW,324,4.0,13.0,82,0.00,,---,0.11,274.00,VWS V14.00,2013-05-02 16:14:00,
2013-05-02 11:18:00,58.2,52.7,30.12,NW,313,4.0,13.0,82,0.00,,---,0.11,272.00,VWS V14.00,2013-05-02 16:18:00,
2013-05-02 11:22:00,58.2,52.7,30.12,NNE,17,3.0,13.0,82,0.00,,---,0.11,274.00,VWS V14.00,2013-05-02 16:22:00,
2013-05-02 11:26:00,58.2,52.7,30.12,NNW,342,10.0,13.0,82,0.00,,---,0.11,278.00,VWS V14.00,2013-05-02 16:26:00,
2013-05-02 11:30:00,58.2,52.7,30.12,WNW,288,5.0,13.0,82,0.00,,---,0.11,281.00,VWS V14.00,2013-05-02 16:30:00,
2013-05-02 11:34:00,58.3,52.5,30.12,WNW,303,4.0,8.0,81,0.00,,---,0.11,295.00,VWS V14.00,2013-05-02 16:34:00,
2013-05-02 11:38:00,58.6,53.1,30.12,NNW,344,6.0,8.0,82,0.00,,---,0.11,276.00,VWS V14.00,2013-05-02 16:38:00,
2013-05-02 11:42:00,58.9,53.4,30.12,North,9,8.0,12.0,82,0.00,,---,0.11,287.00,VWS V14.00,2013-05-02 16:42:00,
2013-05-02 11:46:00,58.9,53.1,30.12,North,5,6.0,12.0,81,0.00,,---,0.11,306.00,VWS V14.00,2013-05-02 16:46:00,
2013-05-02 11:51:00,58.8,52.3,30.12,NNW,329,7.0,15.0,79,0.00,,---,0.11,323.00,VWS V14.00,2013-05-02 16:51:00,
2013-05-02 11:55:00,58.9,52.8,30.12,North,350,8.0,15.0,80,0.00,,---,0.11,306.00,VWS V14.00,2013-05-02 16:55:00,
2013-05-02 11:59:00,58.9,52.8,30.12,North,9,6.0,15.0,80,0.00,,---,0.11,276.00,VWS V14.00,2013-05-02 16:59:00,
2013-05-02 12:00:00,58.9,52.8,30.12,NW,316,11.0,15.0,80,0.00,,---,0.11,276.00,VWS V14.00,2013-05-02 17:00:00,
2013-05-02 12:03:00,58.9,52.8,30.12,NNW,341,3.0,11.0,80,0.00,,---,0.11,260.00,VWS V14.00,2013-05-02 17:03:00,
2013-05-02 12:07:00,58.8,52.7,30.12,NNW,337,7.0,11.0,80,0.00,,---,0.11,244.00,VWS V14.00,2013-05-02 17:07:00,
2013-05-02 12:11:00,58.6,52.1,30.12,WNW,300,7.0,11.0,79,0.00,,---,0.11,218.00,VWS V14.00,2013-05-02 17:11:00,
2013-05-02 12:15:00,58.3,51.5,30.12,WNW,285,10.0,11.0,78,0.00,,---,0.11,211.00,VWS V14.00,2013-05-02 17:15:00,
2013-05-02 12:19:00,58.2,52.1,30.12,NNW,332,9.0,13.0,80,0.00,,---,0.11,214.00,VWS V14.00,2013-05-02 17:19:00,
2013-05-02 12:23:00,58.2,51.7,30.12,NNW,331,10.0,13.0,79,0.00,,---,0.11,206.00,VWS V14.00,2013-05-02 17:23:00,
2013-05-02 12:27:00,58.0,51.2,30.12,NW,313,5.0,13.0,78,0.00,,---,0.11,178.00,VWS V14.00,2013-05-02 17:27:00,
2013-05-02 12:30:00,58.0,51.5,30.13,NW,319,10.0,13.0,79,0.00,,---,0.11,181.00,VWS V14.00,2013-05-02 17:30:00,
2013-05-02 12:31:00,58.0,51.2,30.13,NNW,342,5.0,10.0,78,0.00,,---,0.11,190.00,VWS V14.00,2013-05-02 17:31:00,
2013-05-02 12:35:00,58.1,52.0,30.13,North,11,5.0,10.0,80,0.00,,---,0.11,236.00,VWS V14.00,2013-05-02 17:35:00,
2013-05-02 12:39:00,58.5,52.7,30.13,NNW,345,6.0,10.0,81,0.00,,---,0.11,251.00,VWS V14.00,2013-05-02 17:39:00,
2013-05-02 12:43:00,58.4,51.9,30.13,North,9,6.0,11.0,79,0.00,,---,0.11,234.00,VWS V14.00,2013-05-02 17:43:00,
2013-05-02 12:47:00,58.2,51.7,30.13,NNW,337,6.0,11.0,79,0.00,,---,0.11,223.00,VWS V14.00,2013-05-02 17:47:00,
2013-05-02 12:51:00,58.3,52.5,30.13,NNW,340,5.0,11.0,81,0.00,,---,0.11,272.00,VWS V14.00,2013-05-02 17:51:00,
2013-05-02 12:55:00,58.4,52.3,30.13,NNW,331,3.0,11.0,80,0.00,,---,0.11,292.00,VWS V14.00,2013-05-02 17:55:00,
2013-05-02 12:59:00,58.5,52.0,30.13,NW,305,1.0,11.0,79,0.00,,---,0.11,271.00,VWS V14.00,2013-05-02 17:59:00,
2013-05-02 13:00:00,58.6,52.1,30.13,NNW,345,11.0,11.0,79,0.00,,---,0.11,251.00,VWS V14.00,2013-05-02 18:00:00,
2013-05-02 13:03:00,58.5,51.3,30.13,NNW,339,4.0,11.0,77,0.00,,---,0.11,229.00,VWS V14.00,2013-05-02 18:03:00,
2013-05-02 13:07:00,58.4,51.6,30.13,North,351,5.0,11.0,78,0.00,,---,0.11,206.00,VWS V14.00,2013-05-02 18:07:00,
2013-05-02 13:11:00,58.3,51.1,30.13,WNW,302,1.0,12.0,77,0.00,,---,0.11,174.00,VWS V14.00,2013-05-02 18:11:00,
2013-05-02 13:15:00,58.1,51.3,30.14,NNE,19,4.0,12.0,78,0.00,,---,0.11,162.00,VWS V14.00,2013-05-02 18:15:00,
2013-05-02 13:19:00,58.0,51.2,30.14,NNW,346,8.0,12.0,78,0.00,,---,0.11,195.00,VWS V14.00,2013-05-02 18:19:00,
2013-05-02 13:23:00,57.7,50.5,30.14,WSW,254,9.0,12.0,77,0.00,,---,0.11,223.00,VWS V14.00,2013-05-02 18:23:00,
2013-05-02 13:27:00,57.9,51.1,30.14,North,360,2.0,14.0,78,0.00,,---,0.11,253.00,VWS V14.00,2013-05-02 18:27:00,
2013-05-02 13:30:00,58.0,50.8,30.13,North,360,5.0,14.0,77,0.00,,---,0.11,200.00,VWS V14.00,2013-05-02 18:30:00,
2013-05-02 13:31:00,58.0,50.8,30.13,North,11,5.0,5.0,77,0.00,,---,0.11,193.00,VWS V14.00,2013-05-02 18:31:00,
2013-05-02 13:35:00,58.0,51.2,30.13,North,351,3.0,9.0,78,0.00,,---,0.11,214.00,VWS V14.00,2013-05-02 18:35:00,
2013-05-02 13:39:00,57.7,50.9,30.13,NNW,338,10.0,11.0,78,0.00,,---,0.11,178.00,VWS V14.00,2013-05-02 18:39:00,
2013-05-02 13:43:00,57.2,50.8,30.13,NNW,343,3.0,11.0,79,0.00,,---,0.11,167.00,VWS V14.00,2013-05-02 18:43:00,
2013-05-02 13:47:00,56.7,49.9,30.15,South,171,2.0,11.0,78,0.00,,---,0.11,144.00,VWS V14.00,2013-05-02 18:47:00,
2013-05-02 13:51:00,56.0,49.2,30.15,West,272,2.0,11.0,78,0.00,,---,0.11,139.00,VWS V14.00,2013-05-02 18:51:00,
2013-05-02 13:55:00,55.5,49.1,30.15,NNW,329,12.0,12.0,79,0.00,,---,0.11,144.00,VWS V14.00,2013-05-02 18:55:00,
2013-05-02 13:59:00,55.3,48.9,30.15,NNE,17,4.0,12.0,79,0.00,,---,0.11,148.00,VWS V14.00,2013-05-02 18:59:00,
2013-05-02 14:00:00,55.3,48.9,30.15,NNE,17,4.0,12.0,79,0.00,,---,0.11,148.00,VWS V14.00,2013-05-02 19:00:00,
2013-05-02 14:03:00,55.1,49.0,30.15,WNW,294,5.0,13.0,80,0.00,,---,0.11,148.00,VWS V14.00,2013-05-02 19:03:00,
2013-05-02 14:07:00,54.9,48.5,30.15,WNW,291,3.0,13.0,79,0.00,,---,0.11,135.00,VWS V14.00,2013-05-02 19:07:00,
2013-05-02 14:11:00,54.6,48.6,30.15,NNE,21,7.0,13.0,80,0.00,,---,0.11,139.00,VWS V14.00,2013-05-02 19:11:00,
2013-05-02 14:15:00,54.7,49.0,30.15,NNW,329,6.0,13.0,81,0.00,,---,0.11,155.00,VWS V14.00,2013-05-02 19:15:00,
2013-05-02 14:19:00,54.6,48.6,30.15,North,355,11.0,15.0,80,0.00,,---,0.11,141.00,VWS V14.00,2013-05-02 19:19:00,
2013-05-02 14:24:00,54.3,48.3,30.15,NNW,341,10.0,15.0,80,0.00,,---,0.11,153.00,VWS V14.00,2013-05-02 19:24:00,
2013-05-02 14:28:00,54.1,48.1,30.15,NNW,328,14.0,15.0,80,0.00,,---,0.11,146.00,VWS V14.00,2013-05-02 19:28:00,
2013-05-02 14:30:00,54.0,48.0,30.15,NW,315,9.0,15.0,80,0.00,,---,0.11,148.00,VWS V14.00,2013-05-02 19:30:00,
2013-05-02 14:32:00,54.0,48.0,30.15,North,5,10.0,12.0,80,0.00,,---,0.11,146.00,VWS V14.00,2013-05-02 19:32:00,
2013-05-02 14:36:00,53.9,48.2,30.15,NW,321,11.0,12.0,81,0.00,,---,0.11,132.00,VWS V14.00,2013-05-02 19:36:00,
2013-05-02 14:40:00,53.7,47.7,30.15,SW,232,5.0,13.0,80,0.00,,---,0.11,127.00,VWS V14.00,2013-05-02 19:40:00,
2013-05-02 14:44:00,53.5,47.8,30.15,NNW,345,3.0,14.0,81,0.00,,---,0.11,120.00,VWS V14.00,2013-05-02 19:44:00,
2013-05-02 14:48:00,53.6,47.9,30.15,NNW,342,7.0,14.0,81,0.00,,---,0.11,123.00,VWS V14.00,2013-05-02 19:48:00,
2013-05-02 14:52:00,53.7,48.0,30.15,NW,306,12.0,14.0,81,0.00,,---,0.11,114.00,VWS V14.00,2013-05-02 19:52:00,
2013-05-02 14:56:00,53.7,48.0,30.15,NNW,348,15.0,15.0,81,0.00,,---,0.11,114.00,VWS V14.00,2013-05-02 19:56:00,
2013-05-02 15:00:00,53.7,47.7,30.15,NW,304,15.0,15.0,80,0.00,,---,0.11,123.00,VWS V14.00,2013-05-02 20:00:00,
2013-05-02 15:04:00,53.8,48.1,30.15,NNE,13,6.0,15.0,81,0.00,,---,0.11,121.00,VWS V14.00,2013-05-02 20:04:00,
2013-05-02 15:08:00,53.9,48.2,30.15,NNE,13,5.0,15.0,81,0.00,,---,0.11,137.00,VWS V14.00,2013-05-02 20:08:00,
2013-05-02 15:12:00,54.0,48.3,30.15,WSW,257,6.0,15.0,81,0.00,,---,0.11,146.00,VWS V14.00,2013-05-02 20:12:00,
2013-05-02 15:16:00,54.1,48.4,30.15,NNW,331,9.0,15.0,81,0.00,,---,0.11,139.00,VWS V14.00,2013-05-02 20:16:00,
2013-05-02 15:20:00,54.1,48.4,30.15,NNW,331,8.0,15.0,81,0.00,,---,0.11,135.00,VWS V14.00,2013-05-02 20:20:00,
2013-05-02 15:24:00,54.0,48.0,30.15,NNE,16,7.0,15.0,80,0.00,,---,0.11,130.00,VWS V14.00,2013-05-02 20:24:00,
2013-05-02 15:28:00,53.9,48.2,30.15,NNW,337,6.0,15.0,81,0.00,,---,0.11,121.00,VWS V14.00,2013-05-02 20:28:00,
2013-05-02 15:30:00,53.8,48.1,30.15,North,349,6.0,15.0,81,0.00,,---,0.11,113.00,VWS V14.00,2013-05-02 20:30:00,
2013-05-02 15:32:00,53.8,48.1,30.15,West,269,5.0,10.0,81,0.00,,---,0.11,105.00,VWS V14.00,2013-05-02 20:32:00,
2013-05-02 15:36:00,53.5,47.8,30.15,North,10,3.0,14.0,81,0.00,,---,0.11,107.00,VWS V14.00,2013-05-02 20:36:00,
2013-05-02 15:40:00,53.2,47.9,30.15,NNW,329,3.0,14.0,82,0.00,,---,0.11,83.00,VWS V14.00,2013-05-02 20:40:00,
2013-05-02 15:44:00,53.0,48.0,30.15,North,349,7.0,14.0,83,0.00,,---,0.11,81.00,VWS V14.00,2013-05-02 20:44:00,
2013-05-02 15:48:00,52.7,47.7,30.15,NW,311,1.0,14.0,83,0.00,,---,0.11,70.00,VWS V14.00,2013-05-02 20:48:00,
2013-05-02 15:52:00,52.6,47.3,30.15,WNW,291,5.0,15.0,82,0.00,,---,0.11,76.00,VWS V14.00,2013-05-02 20:52:00,
2013-05-02 15:56:00,52.4,47.1,30.15,NNE,17,5.0,15.0,82,0.00,,---,0.11,72.00,VWS V14.00,2013-05-02 20:56:00,
2013-05-02 16:00:00,52.3,47.0,30.15,NNW,333,7.0,15.0,82,0.00,,---,0.11,90.00,VWS V14.00,2013-05-02 21:00:00,
2013-05-02 16:04:00,52.2,46.9,30.15,NNW,333,6.0,14.0,82,0.00,,---,0.11,63.00,VWS V14.00,2013-05-02 21:04:00,
2013-05-02 16:08:00,52.3,47.3,30.15,North,9,6.0,14.0,83,0.00,,---,0.11,53.00,VWS V14.00,2013-05-02 21:08:00,
2013-05-02 16:12:00,52.2,47.2,30.15,NW,317,7.0,14.0,83,0.00,,---,0.11,46.00,VWS V14.00,2013-05-02 21:12:00,
2013-05-02 16:16:00,52.1,47.1,30.17,NW,322,2.0,14.0,83,0.00,,---,0.11,46.00,VWS V14.00,2013-05-02 21:16:00,
2013-05-02 16:20:00,51.8,46.5,30.17,NW,321,7.0,17.0,82,0.00,,---,0.11,40.00,VWS V14.00,2013-05-02 21:20:00,
2013-05-02 16:24:00,51.5,46.5,30.17,NNW,336,10.0,17.0,83,0.00,,---,0.11,47.00,VWS V14.00,2013-05-02 21:24:00,
2013-05-02 16:29:00,51.4,46.4,30.17,WNW,299,12.0,17.0,83,0.00,,---,0.11,49.00,VWS V14.00,2013-05-02 21:29:00,
2013-05-02 16:30:00,51.4,46.4,30.17,North,355,8.0,17.0,83,0.00,,---,0.11,46.00,VWS V14.00,2013-05-02 21:30:00,
2013-05-02 16:33:00,51.4,46.4,30.17,NNW,342,7.0,10.0,83,0.00,,---,0.11,42.00,VWS V14.00,2013-05-02 21:33:00,
2013-05-02 16:37:00,51.4,46.4,30.17,North,5,5.0,11.0,83,0.00,,---,0.11,40.00,VWS V14.00,2013-05-02 21:37:00,
2013-05-02 16:41:00,51.3,46.3,30.17,NNW,344,8.0,16.0,83,0.00,,---,0.11,32.00,VWS V14.00,2013-05-02 21:41:00,
2013-05-02 16:45:00,51.3,46.6,30.17,North,5,6.0,16.0,84,0.00,,---,0.11,28.00,VWS V14.00,2013-05-02 21:45:00,
2013-05-02 16:49:00,51.1,46.1,30.17,North,350,13.0,16.0,83,0.00,,---,0.11,26.00,VWS V14.00,2013-05-02 21:49:00,
2013-05-02 16:53:00,51.0,46.3,30.17,NNE,14,6.0,18.0,84,0.00,,---,0.11,28.00,VWS V14.00,2013-05-02 21:53:00,
2013-05-02 16:57:00,51.0,46.3,30.17,North,355,5.0,18.0,84,0.00,,---,0.11,39.00,VWS V14.00,2013-05-02 21:57:00,
2013-05-02 17:00:00,51.0,46.7,30.17,NNW,333,11.0,18.0,85,0.00,,---,0.11,33.00,VWS V14.00,2013-05-02 22:00:00,
2013-05-02 17:01:00,51.0,46.3,30.17,NNW,344,6.0,13.0,84,0.00,,---,0.11,30.00,VWS V14.00,2013-05-02 22:01:00,
2013-05-02 17:05:00,50.9,46.2,30.17,North,5,5.0,13.0,84,0.00,,---,0.11,30.00,VWS V14.00,2013-05-02 22:05:00,
2013-05-02 17:09:00,50.7,46.4,30.17,WNW,296,7.0,13.0,85,0.00,,---,0.11,28.00,VWS V14.00,2013-05-02 22:09:00,
2013-05-02 17:13:00,50.5,46.2,30.17,North,360,14.0,14.0,85,0.00,,---,0.11,40.00,VWS V14.00,2013-05-02 22:13:00,
2013-05-02 17:17:00,50.0,45.7,30.17,NNE,25,9.0,14.0,85,0.00,,---,0.11,40.00,VWS V14.00,2013-05-02 22:17:00,
2013-05-02 17:21:00,49.7,45.7,30.17,North,5,4.0,14.0,86,0.00,,---,0.11,44.00,VWS V14.00,2013-05-02 22:21:00,
2013-05-02 17:25:00,49.4,45.1,30.17,NNW,346,6.0,16.0,85,0.00,,---,0.11,40.00,VWS V14.00,2013-05-02 22:25:00,
2013-05-02 17:29:00,49.2,44.9,30.17,NW,326,9.0,16.0,85,0.00,,---,0.11,42.00,VWS V14.00,2013-05-02 22:29:00,
2013-05-02 17:30:00,49.2,44.9,30.17,NNE,21,12.0,16.0,85,0.00,,---,0.11,54.00,VWS V14.00,2013-05-02 22:30:00,
2013-05-02 17:33:00,49.1,44.8,30.17,NW,312,11.0,13.0,85,0.00,,---,0.11,37.00,VWS V14.00,2013-05-02 22:33:00,
2013-05-02 17:37:00,49.1,44.8,30.17,NNW,344,4.0,13.0,85,0.00,,---,0.11,39.00,VWS V14.00,2013-05-02 22:37:00,
2013-05-02 17:41:00,49.1,44.5,30.17,NNW,347,14.0,17.0,84,0.00,,---,0.11,40.00,VWS V14.00,2013-05-02 22:41:00,
2013-05-02 17:45:00,48.9,44.0,30.17,NNE,21,14.0,17.0,83,0.00,,---,0.11,44.00,VWS V14.00,2013-05-02 22:45:00,
2013-05-02 17:49:00,48.8,43.9,30.17,NW,322,10.0,17.0,83,0.00,,---,0.11,44.00,VWS V14.00,2013-05-02 22:49:00,
2013-05-02 17:53:00,48.6,43.4,30.17,NW,313,17.0,17.0,82,0.00,,---,0.11,56.00,VWS V14.00,2013-05-02 22:53:00,
2013-05-02 17:57:00,48.5,43.6,30.17,North,5,6.0,17.0,83,0.00,,---,0.11,54.00,VWS V14.00,2013-05-02 22:57:00,
2013-05-02 18:00:00,48.5,43.6,30.17,North,5,9.0,17.0,83,0.00,,---,0.11,47.00,VWS V14.00,2013-05-02 23:00:00,
2013-05-02 18:01:00,48.5,43.6,30.17,North,350,11.0,13.0,83,0.00,,---,0.11,40.00,VWS V14.00,2013-05-02 23:01:00,
2013-05-02 18:05:00,48.6,44.0,30.17,North,351,14.0,16.0,84,0.00,,---,0.11,28.00,VWS V14.00,2013-05-02 23:05:00,
2013-05-02 18:09:00,48.6,43.4,30.17,NNW,339,11.0,18.0,82,0.00,,---,0.11,28.00,VWS V14.00,2013-05-02 23:09:00,
2013-05-02 18:13:00,48.6,43.4,30.17,NW,324,9.0,23.0,82,0.00,,---,0.11,37.00,VWS V14.00,2013-05-02 23:13:00,
2013-05-02 18:17:00,48.6,42.7,30.18,NNW,338,9.0,23.0,80,0.00,,---,0.11,33.00,VWS V14.00,2013-05-02 23:17:00,
2013-05-02 18:21:00,48.5,43.0,30.18,NNW,344,5.0,23.0,81,0.00,,---,0.11,16.00,VWS V14.00,2013-05-02 23:21:00,
2013-05-02 18:25:00,48.5,43.0,30.18,North,349,15.0,23.0,81,0.00,,---,0.11,12.00,VWS V14.00,2013-05-02 23:25:00,
2013-05-02 18:30:00,48.4,43.2,30.18,NNW,346,14.0,23.0,82,0.00,,---,0.11,16.00,VWS V14.00,2013-05-02 23:30:00,
2013-05-02 18:34:00,48.4,43.5,30.18,WSW,242,10.0,11.0,83,0.00,,---,0.11,18.00,VWS V14.00,2013-05-02 23:34:00,
2013-05-02 18:38:00,48.3,43.1,30.18,WNW,288,4.0,18.0,82,0.00,,---,0.11,18.00,VWS V14.00,2013-05-02 23:38:00,
2013-05-02 18:42:00,48.2,42.7,30.18,NNW,345,7.0,18.0,81,0.00,,---,0.11,25.00,VWS V14.00,2013-05-02 23:42:00,
2013-05-02 18:46:00,48.1,42.9,30.19,NW,317,12.0,18.0,82,0.00,,---,0.11,30.00,VWS V14.00,2013-05-02 23:46:00,
2013-05-02 18:50:00,47.9,42.7,30.19,NW,307,11.0,18.0,82,0.00,,---,0.11,18.00,VWS V14.00,2013-05-02 23:50:00,
2013-05-02 18:54:00,47.8,42.6,30.19,NNW,346,6.0,18.0,82,0.00,,---,0.11,11.00,VWS V14.00,2013-05-02 23:54:00,
2013-05-02 18:58:00,47.5,42.6,30.19,NNE,15,6.0,18.0,83,0.00,,---,0.11,12.00,VWS V14.00,2013-05-02 23:58:00,
2013-05-02 19:00:00,47.4,42.5,30.19,NNW,346,13.0,18.0,83,0.00,,---,0.11,11.00,VWS V14.00,2013-05-03 00:00:00,
2013-05-02 19:02:00,47.3,42.4,30.19,NNW,347,12.0,14.0,83,0.00,,---,0.11,11.00,VWS V14.00,2013-05-03 00:02:00,
2013-05-02 19:06:00,47.3,42.7,30.19,NNE,21,5.0,14.0,84,0.00,,---,0.11,9.00,VWS V14.00,2013-05-03 00:06:00,
2013-05-02 19:10:00,47.2,42.3,30.19,NNW,346,10.0,14.0,83,0.00,,---,0.11,5.00,VWS V14.00,2013-05-03 00:10:00,
2013-05-02 19:14:00,47.2,42.3,30.19,North,360,11.0,14.0,83,0.00,,---,0.11,5.00,VWS V14.00,2013-05-03 00:14:00,
2013-05-02 19:18:00,47.2,42.6,30.20,NNW,346,10.0,14.0,84,0.00,,---,0.11,5.00,VWS V14.00,2013-05-03 00:18:00,
2013-05-02 19:22:00,47.3,42.7,30.20,NW,324,8.0,18.0,84,0.00,,---,0.11,5.00,VWS V14.00,2013-05-03 00:22:00,
2013-05-02 19:26:00,47.2,42.3,30.20,NNW,333,5.0,18.0,83,0.00,,---,0.11,0.00,VWS V14.00,2013-05-03 00:26:00,
2013-05-02 19:30:00,47.1,42.5,30.21,NW,319,9.0,18.0,84,0.00,,---,0.11,0.00,VWS V14.00,2013-05-03 00:30:00,
2013-05-02 19:34:00,47.1,42.5,30.21,North,355,7.0,13.0,84,0.00,,---,0.11,0.00,VWS V14.00,2013-05-03 00:34:00,
2013-05-02 19:38:00,47.1,42.2,30.21,North,5,7.0,13.0,83,0.00,,---,0.11,0.00,VWS V14.00,2013-05-03 00:38:00,
2013-05-02 19:42:00,47.1,42.5,30.21,NNW,345,9.0,15.0,84,0.00,,---,0.11,0.00,VWS V14.00,2013-05-03 00:42:00,
2013-05-02 19:46:00,47.2,42.6,30.21,North,5,9.0,15.0,84,0.00,,---,0.11,0.00,VWS V14.00,2013-05-03 00:46:00,
2013-05-02 19:50:00,47.2,42.3,30.21,North,355,6.0,18.0,83,0.00,,---,0.11,0.00,VWS V14.00,2013-05-03 00:50:00,
2013-05-02 19:55:00,47.2,42.0,30.21,NW,318,9.0,18.0,82,0.00,,---,0.11,0.00,VWS V14.00,2013-05-03 00:55:00,
2013-05-02 19:59:00,47.1,42.2,30.21,NNW,348,6.0,18.0,83,0.00,,---,0.11,0.00,VWS V14.00,2013-05-03 00:59:00,
2013-05-02 20:00:00,47.1,42.2,30.21,NW,306,15.0,18.0,83,0.00,,---,0.11,0.00,VWS V14.00,2013-05-03 01:00:00,
2013-05-02 20:03:00,47.0,42.1,30.21,NW,321,10.0,12.0,83,0.00,,---,0.11,0.00,VWS V14.00,2013-05-03 01:03:00,
2013-05-02 20:07:00,46.8,42.2,30.21,North,360,13.0,19.0,84,0.00,,---,0.11,0.00,VWS V14.00,2013-05-03 01:07:00,
2013-05-02 20:11:00,46.6,42.0,30.21,NNE,17,8.0,19.0,84,0.00,,---,0.11,0.00,VWS V14.00,2013-05-03 01:11:00,
2013-05-02 20:15:00,46.4,42.1,30.22,NW,317,5.0,19.0,85,0.00,,---,0.11,0.00,VWS V14.00,2013-05-03 01:15:00,
2013-05-02 20:19:00,46.4,42.1,30.22,NW,326,10.0,19.0,85,0.00,,---,0.11,0.00,VWS V14.00,2013-05-03 01:19:00,
2013-05-02 20:23:00,46.2,42.0,30.22,NW,306,5.0,19.0,85,0.00,,---,0.11,0.00,VWS V14.00,2013-05-03 01:23:00,
2013-05-02 20:27:00,46.1,41.8,30.22,North,5,7.0,19.0,85,0.00,,---,0.11,0.00,VWS V14.00,2013-05-03 01:27:00,
2013-05-02 20:30:00,46.0,41.8,30.23,NNE,24,8.0,19.0,85,0.00,,---,0.11,0.00,VWS V14.00,2013-05-03 01:30:00,
2013-05-02 20:31:00,46.0,41.8,30.23,NNW,328,6.0,8.0,85,0.00,,---,0.11,0.00,VWS V14.00,2013-05-03 01:31:00,
2013-05-02 20:35:00,45.9,41.7,30.23,NNW,345,5.0,12.0,85,0.00,,---,0.11,0.00,VWS V14.00,2013-05-03 01:35:00,
2013-05-02 20:39:00,45.8,41.9,30.23,North,360,15.0,15.0,86,0.00,,---,0.11,0.00,VWS V14.00,2013-05-03 01:39:00,
2013-05-02 20:43:00,45.8,41.9,30.23,NNE,15,8.0,15.0,86,0.00,,---,0.11,0.00,VWS V14.00,2013-05-03 01:43:00,
2013-05-02 20:47:00,45.6,42.0,30.23,NW,325,12.0,15.0,87,0.00,,---,0.11,0.00,VWS V14.00,2013-05-03 01:47:00,
2013-05-02 20:51:00,45.3,42.0,30.23,North,5,6.0,15.0,88,0.00,,---,0.11,0.00,VWS V14.00,2013-05-03 01:51:00,
2013-05-02 20:55:00,45.1,41.8,30.23,WSW,254,12.0,15.0,88,0.00,,---,0.11,0.00,VWS V14.00,2013-05-03 01:55:00,
2013-05-02 20:59:00,44.9,41.6,30.24,North,355,6.0,15.0,88,0.00,,---,0.11,0.00,VWS V14.00,2013-05-03 01:59:00,
2013-05-02 21:00:00,44.9,41.6,30.24,North,355,7.0,15.0,88,0.00,,---,0.11,0.00,VWS V14.00,2013-05-03 02:00:00,
2013-05-02 21:03:00,44.8,41.5,30.24,NW,308,6.0,12.0,88,0.00,,---,0.11,0.00,VWS V14.00,2013-05-03 02:03:00,
2013-05-02 21:07:00,44.7,41.4,30.24,NNW,331,6.0,14.0,88,0.00,,---,0.11,0.00,VWS V14.00,2013-05-03 02:07:00,
2013-05-02 21:11:00,44.7,41.4,30.24,North,5,7.0,15.0,88,0.00,,---,0.11,0.00,VWS V14.00,2013-05-03 02:11:00,
2013-05-02 21:15:00,44.6,41.0,30.24,NNW,334,11.0,17.0,87,0.00,,---,0.11,0.00,VWS V14.00,2013-05-03 02:15:00,
2013-05-02 21:19:00,44.6,41.0,30.24,NE,35,6.0,17.0,87,0.00,,---,0.11,0.00,VWS V14.00,2013-05-03 02:19:00,
2013-05-02 21:23:00,44.5,40.9,30.24,NNW,344,8.0,17.0,87,0.00,,---,0.11,0.00,VWS V14.00,2013-05-03 02:23:00,
2013-05-02 21:27:00,44.5,40.9,30.24,NNW,336,9.0,18.0,87,0.00,,---,0.11,0.00,VWS V14.00,2013-05-03 02:27:00,
2013-05-02 21:30:00,44.4,40.8,30.24,North,355,14.0,18.0,87,0.00,,---,0.11,0.00,VWS V14.00,2013-05-03 02:30:00,
2013-05-02 21:31:00,44.4,40.8,30.24,NNE,15,3.0,14.0,87,0.00,,---,0.11,0.00,VWS V14.00,2013-05-03 02:31:00,
2013-05-02 21:35:00,44.5,41.2,30.24,NNW,345,11.0,14.0,88,0.00,,---,0.11,0.00,VWS V14.00,2013-05-03 02:35:00,
2013-05-02 21:39:00,44.6,41.3,30.24,North,355,6.0,14.0,88,0.00,,---,0.11,0.00,VWS V14.00,2013-05-03 02:39:00,
2013-05-02 21:43:00,44.5,41.2,30.24,NW,318,5.0,14.0,88,0.00,,---,0.11,0.00,VWS V14.00,2013-05-03 02:43:00,
2013-05-02 21:47:00,44.3,41.0,30.25,North,10,7.0,14.0,88,0.00,,---,0.11,0.00,VWS V14.00,2013-05-03 02:47:00,
2013-05-02 21:51:00,44.2,40.9,30.25,NNW,348,11.0,24.0,88,0.00,,---,0.11,0.00,VWS V14.00,2013-05-03 02:51:00,
2013-05-02 21:55:00,44.2,41.2,30.25,North,360,5.0,24.0,89,0.00,,---,0.11,0.00,VWS V14.00,2013-05-03 02:55:00,
2013-05-02 22:00:00,44.3,41.3,30.25,North,5,5.0,24.0,89,0.00,,---,0.11,0.00,VWS V14.00,2013-05-03 03:00:00,
2013-05-02 22:04:00,44.2,41.2,30.25,NNE,22,6.0,10.0,89,0.00,,---,0.11,0.00,VWS V14.00,2013-05-03 03:04:00,
2013-05-02 22:08:00,44.0,40.7,30.25,WSW,250,7.0,16.0,88,0.00,,---,0.11,0.00,VWS V14.00,2013-05-03 03:08:00,
2013-05-02 22:12:00,43.9,40.6,30.25,WNW,300,9.0,16.0,88,0.00,,---,0.11,0.00,VWS V14.00,2013-05-03 03:12:00,
2013-05-02 22:16:00,43.8,40.2,30.24,NNE,21,12.0,16.0,87,0.00,,---,0.11,0.00,VWS V14.00,2013-05-03 03:16:00,
2013-05-02 22:20:00,43.9,40.3,30.24,NW,315,12.0,18.0,87,0.00,,---,0.11,0.00,VWS V14.00,2013-05-03 03:20:00,
2013-05-02 22:24:00,44.1,40.8,30.24,NNW,348,3.0,18.0,88,0.00,,---,0.11,0.00,VWS V14.00,2013-05-03 03:24:00,
2013-05-02 22:28:00,44.1,40.5,30.24,NNW,342,12.0,20.0,87,0.00,,---,0.11,0.00,VWS V14.00,2013-05-03 03:28:00,
2013-05-02 22:30:00,44.0,40.1,30.24,WNW,290,9.0,21.0,86,0.00,,---,0.11,0.00,VWS V14.00,2013-05-03 03:30:00,
2013-05-02 22:32:00,43.9,40.3,30.24,North,355,11.0,18.0,87,0.00,,---,0.11,0.00,VWS V14.00,2013-05-03 03:32:00,
2013-05-02 22:36:00,43.8,39.9,30.24,NNW,339,14.0,18.0,86,0.00,,---,0.11,0.00,VWS V14.00,2013-05-03 03:36:00,
2013-05-02 22:40:00,43.9,40.0,30.24,North,5,14.0,18.0,86,0.00,,---,0.11,0.00,VWS V14.00,2013-05-03 03:40:00,
2013-05-02 22:44:00,43.9,40.0,30.23,North,9,11.0,18.0,86,0.00,,---,0.11,0.00,VWS V14.00,2013-05-03 03:44:00,
2013-05-02 22:48:00,44.0,40.4,30.23,NNW,346,5.0,18.0,87,0.00,,---,0.11,0.00,VWS V14.00,2013-05-03 03:48:00,
2013-05-02 22:52:00,44.0,40.4,30.23,North,5,13.0,18.0,87,0.00,,---,0.11,0.00,VWS V14.00,2013-05-03 03:52:00,
2013-05-02 22:56:00,43.8,40.2,30.23,NNW,342,6.0,18.0,87,0.00,,---,0.11,0.00,VWS V14.00,2013-05-03 03:56:00,
2013-05-02 23:00:00,43.6,40.0,30.24,NW,313,3.0,18.0,87,0.00,,---,0.11,0.00,VWS V14.00,2013-05-03 04:00:00,
2013-05-02 23:05:00,43.6,40.3,30.24,WNW,293,7.0,14.0,88,0.00,,---,0.11,0.00,VWS V14.00,2013-05-03 04:05:00,
2013-05-02 23:09:00,43.5,39.9,30.24,NNW,337,4.0,14.0,87,0.00,,---,0.11,0.00,VWS V14.00,2013-05-03 04:09:00,
2013-05-02 23:13:00,43.5,39.9,30.24,North,5,9.0,18.0,87,0.00,,---,0.11,0.00,VWS V14.00,2013-05-03 04:13:00,
2013-05-02 23:17:00,43.5,40.2,30.23,NNE,12,14.0,18.0,88,0.00,,---,0.11,0.00,VWS V14.00,2013-05-03 04:17:00,
2013-05-02 23:21:00,43.5,40.2,30.23,NNW,340,4.0,18.0,88,0.00,,---,0.11,0.00,VWS V14.00,2013-05-03 04:21:00,
2013-05-02 23:25:00,43.5,39.9,30.23,North,355,6.0,18.0,87,0.00,,---,0.11,0.00,VWS V14.00,2013-05-03 04:25:00,
2013-05-02 23:29:00,43.6,40.3,30.23,North,5,6.0,18.0,88,0.00,,---,0.11,0.00,VWS V14.00,2013-05-03 04:29:00,
2013-05-02 23:30:00,43.6,40.3,30.23,East,80,6.0,18.0,88,0.00,,---,0.11,0.00,VWS V14.00,2013-05-03 04:30:00,
2013-05-02 23:33:00,43.6,40.0,30.23,NNE,19,6.0,15.0,87,0.00,,---,0.11,0.00,VWS V14.00,2013-05-03 04:33:00,
2013-05-02 23:37:00,43.7,40.1,30.23,North,360,7.0,17.0,87,0.00,,---,0.11,0.00,VWS V14.00,2013-05-03 04:37:00,
2013-05-02 23:41:00,43.8,39.9,30.23,North,355,8.0,17.0,86,0.00,,---,0.11,0.00,VWS V14.00,2013-05-03 04:41:00,
2013-05-02 23:45:00,43.7,40.1,30.22,WNW,284,11.0,17.0,87,0.00,,---,0.11,0.00,VWS V14.00,2013-05-03 04:45:00,
2013-05-02 23:49:00,43.6,39.7,30.22,NW,325,5.0,19.0,86,0.00,,---,0.11,0.00,VWS V14.00,2013-05-03 04:49:00,
2013-05-02 23:53:00,43.4,39.5,30.22,NW,312,11.0,19.0,86,0.00,,---,0.11,0.00,VWS V14.00,2013-05-03 04:53:00,
2013-05-02 23:57:00,43.4,39.5,30.22,NNW,327,12.0,21.0,86,0.00,,---,0.11,0.00,VWS V14.00,2013-05-03 04:57:00,